Location: Clermont
(50.2608°N, 4.3172°E)
Time: 17:19:02
(UTC+00:00)

Cosmos 1025 Rocket - Pass Details

Date: 13 August 2020
Orbit: 594 x 618 km, 82.5° (Epoch: 25 September)

Event Time Altitude Azimuth Distance (km) Brightness Sun altitude
Rises 23:47:15 0° 350° (N) 2,851 7.8 -25.5°
Reaches altitude 10° 23:49:29 10° 352° (N) 1,942 6.6 -25.5°
Enters shadow 23:53:19 68° 21° (NNE) 646 3.2 -25.4°
